Theta_e
336 343 347 346 347 349 348 349 350 349 344 343 344 344 341 339 340 341 341 342 344 343 343 343 342 342 340 341 341 339 338 339 340 336 336 336 337 337 337 337 338 333 336
339 343 345 346 346 349 350 349 349 347 344 344 344 343 342 339 338 337 340 340 340 341 342 340 339 339 337 338 340 339 338 338 338 339 339 338 337 336 336 337 338 333 336
338 345 345 346 346 348 350 349 348 346 344 345 343 342 340 339 338 336 337 339 338 335 337 338 338 336 335 335 337 338 336 335 334 336 338 329 329 335 336 335 335 335 334
338 344 344 344 346 346 349 349 348 348 347 345 343 342 340 338 337 336 337 338 335 334 335 335 337 334 334 334 335 336 334 332 332 333 329 329 329 333 334 333 333 333 332
336 344 343 344 346 346 346 348 347 347 348 346 344 341 340 339 337 337 338 337 335 334 334 335 334 334 332 334 334 333 331 329 330 328 323 324 324 331 331 330 329 329 330
337 340 341 344 346 346 346 346 347 347 346 346 345 343 340 339 340 340 338 337 338 335 335 336 334 333 331 332 334 333 331 329 330 321 319 323 324 330 329 327 327 327 328
338 340 342 343 345 345 345 345 346 347 347 345 345 344 343 341 340 339 338 338 336 334 334 334 332 333 330 329 330 329 330 331 326 319 318 318 325 330 329 329 328 329 329
337 341 344 338 340 343 344 344 344 345 346 345 344 344 342 341 340 340 338 336 335 334 333 333 332 333 330 327 327 326 326 324 320 316 318 318 331 330 328 329 330 330 330
335 338 342 342 340 335 338 339 341 343 344 344 342 343 340 339 339 338 338 338 337 335 333 333 333 331 329 327 325 326 323 322 314 314 318 318 330 328 330 328 328 329 330
326 335 337 339 341 341 339 333 335 338 340 340 338 337 335 334 334 334 333 335 336 332 334 331 333 330 328 327 327 325 323 322 314 313 317 321 330 327 329 331 331 331 331
306 310 327 337 338 340 340 336 330 333 334 334 334 331 330 334 332 329 329 331 335 333 331 332 333 331 328 326 325 325 323 317 314 313 315 327 329 328 329 331 333 333 332
299 302 307 333 336 339 340 337 334 335 337 337 336 335 334 333 330 329 325 326 330 330 330 333 332 329 324 318 317 322 317 317 316 315 318 328 329 329 331 333 333 334 334
297 300 303 308 331 336 338 337 333 333 335 337 336 335 334 333 330 329 325 324 324 322 325 327 326 324 320 316 312 313 314 314 315 317 320 326 329 329 331 333 334 334 335
300 302 301 303 306 330 335 336 335 333 331 335 336 336 334 332 330 329 327 324 324 324 323 322 322 322 319 316 314 314 313 314 317 317 318 323 327 328 330 333 335 335 336
301 304 310 312 316 318 329 334 335 334 332 330 335 336 335 332 331 329 327 328 326 325 323 322 319 320 317 316 315 315 314 316 318 318 318 318 324 329 330 333 335 336 337
300 301 306 309 311 313 312 315 322 334 334 332 329 334 335 333 332 330 327 326 327 326 323 322 318 316 316 316 316 314 314 316 318 319 320 318 322 327 330 332 335 336 337
298 299 301 306 309 309 310 312 313 313 332 333 332 330 333 334 332 331 328 327 328 327 324 320 319 316 315 315 314 315 315 317 317 318 319 320 321 322 326 331 334 336 336
296 297 299 302 302 305 308 309 311 313 316 331 332 332 332 333 333 331 329 328 328 327 324 319 317 316 315 313 312 313 314 317 318 318 318 320 321 324 322 328 331 333 336
294 295 296 298 298 302 305 306 308 311 310 309 307 311 328 332 333 332 331 330 329 327 325 321 319 317 314 314 314 313 314 315 316 319 318 319 321 324 325 324 324 326 333
294 295 295 296 298 300 304 304 305 308 309 310 309 309 308 309 328 332 331 330 329 327 325 321 319 319 316 315 317 315 313 315 316 316 317 319 321 324 325 326 322 320 321
294 293 294 295 295 297 300 300 299 301 304 306 308 308 308 309 308 319 331 330 330 327 325 321 318 317 316 316 313 312 312 314 314 315 317 317 320 323 324 326 319 314 318
292 293 294 295 295 296 298 301 301 301 303 305 306 307 307 309 309 309 307 310 329 327 324 320 318 317 317 317 313 311 307 310 313 314 315 319 316 318 312 310 309 308 311
291 292 294 295 295 296 297 298 300 300 299 300 302 303 305 308 309 309 310 311 311 328 324 321 319 317 314 317 316 311 305 304 310 312 306 307 306 305 305 305 304 303 302
291 293 294 295 296 296 296 296 295 295 295 296 299 302 303 306 308 310 310 310 308 317 325 322 320 317 316 313 315 316 312 314 309 305 305 301 301 300 299 301 300 300 300
292 291 293 294 295 296 295 295 294 294 295 298 298 299 301 303 306 307 309 311 310 309 323 323 321 318 318 315 315 315 313 313 316 309 302 298 297 296 296 296 296 295 297
291 292 293 294 294 295 294 294 293 293 293 294 295 297 299 300 303 306 309 309 310 310 313 324 322 319 317 317 316 316 314 311 313 313 306 300 296 293 293 293 292 293 294
Wind_Speed
4 14 14 12 14 12 12 10 14 13 14 13 12 11 10 9 9 8 8 5 9 8 12 13 11 13 12 12 14 13 12 11 11 12 11 11 11 11 10 9 13 8 12
6 13 13 12 11 11 12 11 11 12 13 13 12 10 11 9 9 10 10 6 6 9 10 12 11 11 11 10 12 12 11 10 9 10 11 11 11 11 12 14 12 9 11
2 14 11 9 10 10 9 12 12 12 13 13 12 11 10 10 10 9 9 7 6 6 7 9 10 8 8 8 9 10 9 6 5 5 9 6 6 10 10 10 10 10 9
2 14 12 9 8 8 7 10 12 12 12 13 12 12 10 9 9 9 8 8 8 6 8 7 10 8 7 7 8 9 7 3 3 5 4 7 7 8 9 9 8 8 8
1 11 10 14 10 8 8 8 12 12 12 12 13 11 11 10 10 9 8 9 8 7 8 9 9 7 7 6 9 8 6 4 5 6 1 6 5 7 7 7 7 6 8
3 3 15 17 15 12 10 9 10 13 12 13 13 12 11 11 10 9 7 8 7 9 10 9 8 7 6 6 6 6 5 3 5 6 5 2 5 9 7 6 6 5 5
6 5 9 16 15 14 12 11 11 12 13 13 13 13 12 11 10 9 9 9 8 9 9 9 9 8 6 5 5 4 3 4 5 6 5 4 6 7 6 5 5 4 4
14 2 8 10 11 12 13 12 12 12 14 13 14 14 13 12 11 11 11 9 10 10 9 10 10 9 6 5 4 3 2 4 6 6 2 3 9 7 5 5 4 4 4
7 9 2 7 9 8 9 10 12 12 11 12 14 14 13 12 11 10 10 10 12 11 12 10 9 9 8 7 6 4 4 6 5 4 4 3 9 8 5 4 4 4 5
7 6 3 4 6 9 8 10 10 11 12 12 13 12 10 10 9 9 9 9 11 13 10 12 10 9 9 9 6 6 5 6 6 6 4 3 9 7 6 5 5 5 5
10 8 8 4 5 7 9 11 14 13 11 12 13 12 11 6 7 8 8 9 10 12 15 13 11 10 9 8 8 8 7 3 6 5 3 11 10 7 6 7 7 5 5
13 15 10 6 5 4 9 9 10 10 8 7 9 11 8 10 7 10 10 12 11 10 14 10 11 10 8 4 4 9 3 5 5 5 3 11 10 8 8 8 8 8 7
10 7 13 12 7 5 4 7 4 6 6 6 11 10 11 9 7 7 5 6 5 7 4 6 5 4 5 5 5 5 6 7 4 3 6 12 11 10 10 9 9 10 9
13 11 9 10 10 8 5 5 5 6 7 7 9 11 9 7 8 7 7 6 6 5 6 6 5 6 7 7 8 6 7 6 4 3 5 11 11 12 12 11 10 10 11
15 11 13 13 14 16 10 6 6 7 7 9 9 12 10 9 10 8 8 8 8 7 8 8 6 8 7 8 6 5 5 5 5 3 3 10 10 11 12 12 12 12 12
14 17 17 8 11 14 11 14 12 9 10 6 9 10 15 11 10 9 8 9 8 9 8 9 7 6 6 6 5 5 6 6 6 6 4 5 11 12 13 13 13 13 12
8 11 15 16 12 9 11 12 9 10 13 11 7 10 11 13 12 12 10 9 10 9 11 7 7 6 5 5 7 6 6 6 6 6 5 4 6 11 12 13 13 12 12
6 8 9 10 11 12 10 10 9 8 13 9 9 9 14 14 15 13 11 12 11 10 10 7 6 5 5 6 5 6 5 6 7 7 5 5 5 5 9 12 11 12 12
6 7 7 8 8 6 8 8 10 9 5 6 8 14 14 15 17 15 12 12 14 11 9 10 8 9 5 5 5 5 6 6 8 7 7 6 6 5 5 11 12 10 10
7 6 7 7 8 7 4 5 7 7 6 4 6 10 15 15 21 16 14 14 13 12 11 11 13 10 8 8 9 8 6 5 5 6 6 6 6 6 4 6 4 4 7
8 8 8 8 8 5 3 3 6 8 9 7 4 8 12 11 16 20 13 16 15 15 16 15 13 14 10 8 5 4 4 6 6 5 5 5 6 6 5 6 4 3 3
7 7 8 9 8 6 5 4 4 5 7 8 7 7 8 10 14 15 15 16 17 15 18 17 16 12 11 12 9 5 4 3 4 1 3 2 6 7 8 8 8 7 5
8 8 9 8 9 7 7 5 4 5 6 7 7 8 8 9 12 13 14 14 24 17 15 18 18 19 14 11 15 7 5 6 7 2 5 5 6 6 6 8 9 8 7
8 7 7 9 10 11 8 7 7 8 9 9 9 8 9 11 12 11 16 13 15 16 18 18 16 16 15 15 12 12 5 6 6 5 2 4 5 6 6 5 7 8 8
7 7 7 8 11 11 9 8 8 9 8 8 8 12 12 10 12 14 12 15 16 13 22 20 20 20 17 15 13 15 13 5 5 5 5 5 4 4 4 5 6 6 7
7 7 7 9 9 11 10 9 11 12 12 9 10 11 10 10 9 13 12 13 16 16 19 18 23 24 20 16 14 14 15 13 9 6 5 5 7 4 4 5 5 5 5
Wind_Direction
134 139 157 168 170 169 163 162 160 153 156 158 161 163 152 141 137 119 116 103 129 93 121 111 86 82 84 74 84 80 85 86 85 103 107 105 101 95 78 122 98 87 91
98 142 154 167 176 178 171 166 156 158 163 168 169 167 172 164 151 134 120 103 106 110 123 110 93 87 87 86 89 91 87 88 106 111 110 102 104 99 84 77 95 98 94
347 138 155 167 177 186 176 170 167 173 176 176 169 169 171 164 163 152 138 136 124 136 135 103 103 98 95 99 105 104 105 110 133 153 155 119 87 102 97 92 95 95 95
320 136 157 164 181 190 194 179 177 180 191 180 180 178 183 183 183 172 160 138 141 172 152 141 114 110 102 110 125 120 119 136 222 219 239 159 122 124 119 115 110 103 101
110 137 154 159 177 195 205 195 193 191 199 189 188 190 194 198 194 184 181 156 164 171 171 176 144 117 100 115 133 131 138 172 246 281 214 103 127 135 127 122 118 103 85
340 176 148 162 175 186 202 213 209 203 206 204 194 193 200 203 205 200 182 174 181 183 179 169 142 135 115 117 128 140 156 219 271 294 101 52 99 139 139 131 120 113 99
324 101 158 169 176 181 195 206 218 215 214 212 203 196 193 204 203 197 197 183 179 190 193 183 173 151 143 143 148 161 191 258 280 292 130 173 131 145 156 155 152 145 144
351 350 150 174 183 186 193 203 211 225 225 210 212 200 193 201 207 199 197 198 193 196 201 196 192 166 171 176 174 188 220 268 293 288 167 138 144 159 186 183 187 187 189
355 351 143 180 196 200 198 214 208 212 229 221 215 204 196 195 202 212 207 202 207 204 204 204 188 181 190 197 202 206 240 268 286 290 200 165 162 166 201 198 199 208 208
339 337 14 292 219 201 206 216 227 226 212 211 217 198 197 195 202 202 210 220 217 217 224 214 188 199 209 209 209 214 240 270 269 275 243 122 153 173 204 228 212 213 217
343 351 316 276 252 246 223 211 212 220 224 210 198 196 190 193 191 209 206 217 217 223 227 207 192 200 213 217 216 218 221 233 245 244 232 157 159 170 213 231 235 229 227
338 329 335 309 292 247 269 237 207 207 209 214 202 187 201 195 203 196 201 212 210 207 219 193 197 202 211 224 224 224 209 227 243 232 153 155 164 178 217 231 231 233 230
315 322 329 335 307 275 240 283 216 205 202 209 205 199 195 196 205 199 189 194 188 199 192 202 201 196 213 222 246 193 206 221 232 220 158 164 175 192 216 227 227 226 233
335 317 323 321 323 299 275 250 252 259 206 197 211 206 201 199 203 215 183 175 182 181 202 196 196 196 213 220 232 224 210 211 220 229 177 172 184 201 214 220 228 227 231
346 356 0 2 1 358 311 286 263 254 251 215 197 206 208 201 204 203 200 175 183 193 189 208 196 202 201 215 223 234 268 263 244 244 159 190 195 204 214 220 223 228 231
358 354 343 2 4 360 355 360 344 286 256 272 225 202 204 209 206 195 196 198 183 190 201 195 201 191 193 191 216 222 221 240 240 235 234 201 205 202 210 220 223 227 231
353 353 355 353 351 348 343 342 335 352 293 250 236 239 200 205 209 202 197 204 207 188 190 183 196 186 188 192 195 204 214 223 231 232 223 227 200 209 203 213 221 229 233
352 349 343 349 349 345 338 329 326 330 348 274 264 250 230 213 209 213 211 205 204 200 181 192 177 193 186 186 193 200 203 203 214 230 229 218 201 201 207 204 212 225 229
336 334 328 330 332 345 327 326 318 321 349 2 356 350 305 236 215 212 215 214 204 198 199 193 188 186 183 185 198 204 203 203 206 213 217 222 219 211 186 197 200 214 228
312 317 318 316 314 322 331 328 309 307 323 342 340 328 344 334 284 216 218 210 209 202 201 189 194 189 184 183 203 210 208 206 194 197 202 210 210 208 175 168 167 202 243
329 329 326 319 315 327 309 330 318 315 318 305 306 309 325 331 338 323 220 210 211 202 200 197 192 188 193 180 163 196 201 198 205 205 198 203 205 196 181 101 92 74 13
314 332 318 309 311 314 302 250 245 289 296 299 309 333 314 323 308 321 331 325 238 204 199 193 192 195 194 185 184 140 179 247 216 194 43 73 58 95 102 90 90 73 51
321 310 312 313 311 298 287 286 257 267 281 299 305 305 325 305 288 292 298 297 311 212 201 198 195 196 191 187 186 161 165 198 150 96 60 75 81 85 92 103 97 87 74
312 308 309 303 304 309 296 288 279 285 288 287 290 294 296 289 285 291 289 307 289 309 207 205 194 197 192 191 189 196 193 153 159 150 121 70 76 80 86 86 94 90 86
298 294 293 297 300 299 300 294 293 289 276 276 279 280 276 289 289 283 289 285 301 309 257 198 197 201 198 190 188 191 209 198 160 143 153 152 94 73 72 83 94 97 100
305 301 301 299 302 308 297 293 295 292 291 285 282 279 276 282 282 283 271 284 290 308 321 219 199 197 199 193 193 192 198 199 189 154 145 143 139 113 93 85 89 95 88